Zurück zum Katalog

STARLINK-31168

AktivKommunikationVLEO
NORAD 58798·PAYLOAD·🇺🇸 United States

Gestartet Jan 15, 2024 von Cape Canaveral Space Force Station

Loading…

Nächste Überflüge (nächste 24 Stunden)

TLE

AktuellSource: CelesTrak SupGP

Epoche: Sep 15, 2026, 02:12 UTC

1 58798C 24012M   26258.09215278 -.00034011  00000+0 -12321-2 0  2582
2 58798  43.0027 175.5754 0001315 272.5947  61.6543 15.27590298    19

Verfolge STARLINK-31168 in Echtzeit mit AllMySat

Download on the App Store